Wetbulb
36.55 37.94 39.36 41.91 43.64 45.08 47.91 52.51 51.79 50.08 54.23 56.57 56.62 60.90 61.63 62.20 60.30 61.04 60.69 56.08 52.26 52.12 53.04 54.64 56.74 57.43 57.70 57.96 58.02 58.21 58.61 58.81 58.88 58.85 58.98 59.05 59.22 59.92
35.21 36.06 36.63 39.89 40.88 43.05 45.95 51.54 54.42 54.33 52.45 56.40 58.03 60.29 61.70 61.68 60.82 62.20 61.62 56.48 51.05 50.69 50.87 51.92 53.55 55.64 55.88 56.08 56.08 56.25 56.82 57.29 57.76 57.93 58.09 58.38 58.69 58.89
34.18 34.59 34.79 36.78 38.43 38.64 40.88 49.69 54.38 54.62 53.25 57.30 59.32 60.96 61.80 60.35 60.87 61.09 61.00 60.33 58.77 49.70 49.50 49.97 50.36 51.79 52.90 53.22 53.73 54.16 54.95 55.34 55.93 56.49 57.25 57.85 58.47 58.79
31.58 33.44 33.48 35.66 35.27 35.94 35.80 38.55 54.59 55.60 55.37 54.88 59.82 59.65 60.35 60.35 60.30 60.50 60.49 60.88 60.48 51.23 48.68 49.04 49.04 49.10 49.84 50.44 50.78 51.10 51.75 52.49 53.03 53.93 54.91 55.85 57.04 57.56
31.23 31.74 32.40 32.63 33.59 32.77 33.32 34.59 41.10 53.90 56.19 57.40 57.81 59.60 59.26 60.09 59.60 60.74 59.79 60.01 60.41 54.18 47.12 46.92 47.61 48.44 48.82 48.92 49.62 50.09 49.87 49.86 49.77 50.05 50.94 51.92 53.19 54.58
31.24 31.57 31.66 31.37 32.79 31.27 32.29 32.93 35.51 39.93 55.80 57.07 58.25 58.17 58.42 57.49 58.95 56.92 55.88 57.66 58.04 57.72 50.36 48.64 47.34 47.20 47.20 47.74 47.99 48.70 49.39 49.24 48.55 48.69 48.33 48.12 48.61 50.31
30.18 30.63 31.47 31.95 33.19 32.31 31.78 31.86 32.90 34.49 55.05 55.39 54.65 54.34 53.51 52.81 54.68 56.70 56.46 56.44 56.56 55.52 54.81 51.82 51.22 50.71 48.84 46.89 49.49 48.41 48.12 48.08 48.06 48.46 48.33 47.81 47.83 48.82
28.09 29.79 31.27 31.65 31.34 31.79 33.57 33.03 32.62 31.40 38.94 49.52 53.26 52.59 51.73 54.85 55.68 53.39 52.50 45.58 47.76 51.87 55.94 54.07 52.55 51.46 52.31 52.13 47.56 46.27 45.82 46.67 47.38 47.40 47.05 46.71 46.33 47.29
28.42 29.44 29.80 30.57 30.15 30.82 31.55 32.40 33.57 32.47 31.73 36.21 37.03 35.53 40.70 41.95 46.73 45.20 50.06 52.55 53.78 48.25 50.78 45.76 44.49 51.53 52.18 51.30 45.76 44.59 44.23 45.21 45.55 45.46 45.79 45.66 45.51 45.18
27.82 28.07 29.20 29.24 29.72 29.52 29.20 28.48 30.56 30.29 32.80 33.87 33.87 33.48 34.44 36.34 38.40 40.83 40.59 37.94 36.88 38.51 41.05 41.41 39.60 46.49 39.60 45.58 44.84 44.75 44.34 43.81 44.12 44.29 44.32 44.05 43.72 43.92
26.51 27.51 27.06 26.95 28.39 29.79 27.40 26.09 26.92 26.93 30.13 32.84 33.60 34.17 34.10 35.15 36.69 36.46 35.96 38.12 36.16 39.60 38.69 42.14 38.69 39.96 37.61 38.51 39.77 42.20 42.81 42.61 42.91 43.07 43.40 43.40 43.22 42.89
24.79 24.97 24.93 24.92 26.22 27.26 26.30 26.40 25.35 25.55 26.77 29.00 30.35 32.23 32.36 32.44 32.26 33.84 36.53 36.11 36.52 38.15 39.78 40.67 38.15 41.41 39.60 41.78 43.59 40.87 41.59 39.53 40.65 41.33 41.48 41.97 42.02 44.79
22.08 22.92 24.03 23.86 24.79 25.37 26.25 26.20 24.92 25.92 26.33 27.29 28.12 28.30 29.79 29.62 30.68 31.64 33.15 33.65 34.33 36.16 37.77 38.32 36.52 38.33 37.61 40.51 39.06 41.78 41.23 40.14 39.42 39.02 39.88 40.59 41.11 42.99
20.70 21.73 21.95 22.30 22.70 22.88 23.44 24.26 24.49 25.93 27.24 25.99 25.57 26.54 26.38 27.02 29.07 30.63 32.96 34.25 34.96 34.12 35.90 35.42 34.89 37.61 37.43 36.70 40.33 38.15 40.87 38.33 37.61 35.97 37.06 38.74 39.16 39.68
21.06 20.93 20.33 20.65 20.86 21.06 21.29 21.69 22.26 23.11 23.61 23.53 23.39 25.06 26.02 27.75 29.13 30.00 32.50 34.34 36.47 36.16 34.34 34.52 35.97 35.79 37.24 38.33 39.06 37.61 37.97 38.69 35.79 36.70 38.51 38.69 40.08 38.88
18.64 19.63 18.20 18.73 18.69 19.31 19.65 20.39 21.18 20.92 20.88 21.44 22.39 24.91 25.51 25.94 27.40 27.78 28.15 29.92 32.74 35.61 33.98 33.26 33.44 34.52 34.52 36.52 37.06 36.70 36.88 35.79 34.52 35.93 35.79 34.71 34.89 36.14
17.62 18.16 17.23 17.12 17.00 17.63 18.57 18.29 18.96 18.59 18.46 19.61 19.92 21.06 23.05 24.06 25.37 26.92 27.06 27.88 29.11 30.82 33.00 36.14 33.26 33.26 34.16 34.16 34.71 37.43 36.52 34.16 34.71 34.16 34.34 34.16 34.07 34.28
16.40 14.60 14.03 14.09 14.00 15.11 15.31 16.37 17.30 16.79 17.02 18.35 19.27 20.93 21.14 22.07 21.97 25.17 26.11 26.37 26.27 28.61 30.08 33.48 34.31 33.98 33.98 33.98 34.43 36.32 34.89 34.52 34.13 33.01 33.87 34.52 32.85 32.97
13.83 13.25 12.46 12.49 12.83 13.93 14.05 14.50 14.77 16.30 17.45 18.04 18.57 19.10 18.64 19.48 20.78 22.46 24.65 25.52 25.52 26.26 28.72 31.24 32.53 32.18 31.99 32.89 34.37 32.60 35.34 33.95 33.21 32.71 32.98 32.86 31.84 31.22
12.60 11.96 11.32 11.78 12.05 12.36 13.13 13.39 14.38 15.21 15.89 16.65 17.66 17.91 18.29 19.15 19.87 20.75 22.19 22.95 23.70 24.88 26.52 29.80 31.21 31.97 31.25 32.53 33.26 32.86 31.69 33.78 33.26 31.72 30.25 30.39 30.74 30.23
11.18 11.30 11.89 11.83 11.82 12.19 12.52 13.19 13.36 14.23 15.08 16.03 17.22 17.21 18.27 18.92 19.21 20.61 22.01 22.20 23.01 24.95 25.40 27.55 30.45 30.41 32.86 31.85 30.52 30.96 31.81 32.30 33.61 32.35 29.92 29.36 27.87 28.40
10.79 10.52 11.30 11.74 11.89 12.21 12.36 12.74 13.18 14.52 15.18 15.76 16.20 17.45 18.53 18.78 18.79 19.72 21.45 22.05 23.66 24.64 25.78 28.67 30.58 30.90 30.55 30.32 30.87 30.59 29.37 31.16 31.46 30.70 30.51 30.56 29.45 26.85
10.48 10.25 10.65 11.10 11.59 12.16 12.37 12.59 12.56 13.57 14.46 14.88 15.28 16.62 17.22 17.76 19.79 20.69 21.74 22.64 23.64 24.31 25.75 26.86 29.01 29.54 29.15 30.76 31.42 29.58 28.63 28.36 29.24 29.49 30.45 30.29 30.16 30.15
MSLP
1013.74 1012.85 1011.70 1010.44 1009.62 1008.62 1007.23 1005.76 1003.97 1002.43 1001.06 1001.08 1001.27 1001.79 1001.93 1001.96 1002.48 1003.29 1003.76 1004.14 1005.38 1006.06 1006.54 1007.10 1008.09 1008.75 1009.54 1010.23 1010.93 1011.69 1012.47 1013.19 1013.78 1014.31 1014.97 1015.50 1016.02 1016.52
1013.27 1012.32 1011.36 1010.02 1009.05 1007.98 1006.40 1004.70 1002.80 1001.25 1000.11 999.47 999.33 999.78 1000.48 1000.82 1001.53 1002.02 1002.44 1003.28 1003.95 1004.47 1005.30 1006.03 1006.64 1007.25 1008.16 1008.85 1009.58 1010.36 1011.14 1011.98 1012.69 1013.19 1013.81 1014.39 1014.90 1015.47
1012.73 1011.64 1010.71 1009.85 1008.48 1007.50 1005.86 1003.41 1001.10 1000.12 999.03 998.44 998.38 998.74 999.02 999.61 1000.33 1000.79 1001.47 1002.00 1002.35 1003.17 1003.96 1004.68 1005.33 1005.84 1006.67 1007.49 1008.26 1009.03 1009.80 1010.64 1011.41 1012.12 1012.63 1013.20 1013.75 1014.41
1012.45 1011.32 1010.17 1009.18 1008.17 1007.17 1005.42 1003.17 999.67 998.37 997.85 997.22 997.09 997.51 997.76 998.65 999.30 999.56 1000.36 1001.08 1001.55 1001.99 1002.67 1003.24 1003.98 1004.93 1005.43 1006.12 1006.94 1007.72 1008.49 1009.28 1010.14 1010.85 1011.47 1012.02 1012.55 1013.17
1012.47 1011.33 1010.09 1009.11 1007.78 1006.59 1004.87 1002.96 1000.67 997.54 996.16 996.37 995.97 996.41 996.88 997.63 998.35 999.06 999.23 1000.12 1000.71 1000.72 1001.60 1002.20 1002.87 1003.71 1004.36 1004.83 1005.53 1006.29 1007.11 1007.79 1008.70 1009.52 1010.20 1010.72 1011.35 1012.00
1012.37 1011.31 1010.20 1009.14 1007.80 1006.48 1004.80 1003.00 1001.01 998.68 995.16 994.49 995.00 995.68 996.13 996.98 997.53 998.11 998.77 999.19 999.62 1000.26 1000.91 1001.19 1001.84 1002.59 1003.26 1003.92 1004.54 1005.10 1005.78 1006.46 1007.27 1008.00 1008.75 1009.45 1010.04 1010.69
1011.86 1010.93 1009.96 1008.97 1007.60 1006.49 1005.07 1003.32 1001.52 999.10 995.33 993.79 994.50 995.53 995.99 996.39 996.56 997.29 998.06 998.73 998.97 999.45 1000.05 1000.64 1001.07 1001.79 1002.55 1003.14 1003.47 1004.00 1004.54 1005.15 1005.82 1006.48 1007.37 1008.14 1008.69 1009.15
1011.36 1010.44 1009.61 1008.52 1007.33 1005.89 1004.87 1003.66 1002.16 999.77 997.07 994.48 994.87 995.45 995.87 996.21 996.44 996.83 997.85 998.68 999.14 998.97 999.25 999.89 1000.26 1000.83 1001.41 1002.01 1002.07 1002.76 1003.52 1004.08 1004.74 1005.26 1005.79 1006.74 1007.34 1007.86
1011.49 1010.43 1009.41 1008.59 1007.34 1005.97 1004.87 1003.32 1001.70 1001.72 999.27 996.75 996.08 997.36 997.30 997.49 997.13 997.13 997.34 997.89 998.22 998.37 998.62 999.68 1000.05 1000.29 1000.66 1001.02 1001.25 1002.01 1002.52 1003.07 1003.76 1004.31 1004.55 1005.34 1006.10 1006.55
1011.62 1010.68 1009.60 1008.48 1007.50 1006.04 1004.78 1003.24 1003.76 1001.06 1000.33 998.35 997.92 998.38 998.59 999.14 998.90 998.13 997.71 997.96 998.59 998.65 998.67 999.63 999.79 1000.05 1000.31 1000.43 1000.65 1001.08 1001.56 1002.11 1002.70 1003.26 1003.77 1003.99 1004.81 1005.43
1011.51 1010.80 1009.83 1008.68 1007.67 1006.55 1005.01 1003.72 1002.13 1001.69 1001.47 998.11 998.34 998.40 998.94 999.60 999.25 999.43 998.55 997.78 998.77 998.62 998.81 999.18 999.92 1000.07 1000.31 1000.32 1000.37 1000.54 1000.84 1001.37 1001.96 1002.42 1002.87 1003.27 1003.50 1004.22
1011.70 1010.86 1010.22 1009.35 1007.95 1006.86 1006.10 1005.08 1003.38 1002.51 1000.82 999.32 999.38 998.99 999.98 999.84 1000.17 1000.53 999.64 998.17 998.63 999.29 999.11 999.05 999.71 999.90 1000.56 1000.27 1000.26 1000.29 1000.60 1000.77 1001.38 1001.90 1002.54 1002.94 1003.19 1003.69
1012.44 1011.39 1010.69 1010.18 1009.20 1008.25 1006.68 1005.63 1005.18 1003.88 1002.30 1001.32 1000.96 1001.03 1000.56 1000.73 1001.17 1000.25 1000.77 999.48 999.19 999.14 999.24 998.97 999.67 1000.04 1000.00 1000.23 1000.46 1000.36 1000.62 1001.06 1001.39 1001.58 1001.87 1002.26 1002.66 1002.97
1013.33 1012.56 1011.69 1010.52 1009.54 1008.34 1007.13 1006.78 1005.60 1004.22 1003.18 1003.00 1002.38 1001.96 1001.91 1002.01 1000.93 1000.06 1000.87 999.87 1000.02 999.96 999.53 999.60 999.95 999.86 1000.00 1000.44 1000.56 1000.34 1000.63 1000.91 1001.14 1001.45 1001.82 1002.23 1002.51 1002.55
1014.15 1013.21 1012.17 1011.11 1009.93 1008.66 1008.32 1007.55 1006.48 1005.81 1005.60 1004.68 1003.57 1003.91 1004.28 1003.10 1001.54 1000.90 1000.76 1000.63 1000.21 999.92 999.84 999.93 999.94 999.86 1000.16 1000.16 1000.28 1000.34 1000.55 1000.82 1001.21 1001.37 1001.69 1002.08 1002.32 1002.33
1014.61 1013.64 1012.88 1011.79 1010.87 1010.15 1009.25 1008.37 1007.36 1006.66 1005.97 1005.30 1004.95 1004.95 1004.10 1002.99 1002.22 1001.99 1002.43 1001.53 1000.97 1000.07 1000.04 999.92 1000.02 1000.06 1000.14 1000.10 1000.03 1000.19 1000.52 1000.63 1001.12 1001.45 1001.75 1002.07 1002.20 1002.25
1015.29 1014.30 1013.24 1012.32 1011.39 1010.64 1009.99 1009.22 1008.21 1007.56 1007.00 1006.39 1005.93 1005.03 1004.07 1003.83 1003.35 1003.15 1002.92 1001.98 1001.48 1000.70 1000.23 999.96 1000.14 1000.12 1000.10 999.99 1000.03 1000.04 1000.47 1000.70 1001.00 1001.45 1001.93 1002.12 1002.24 1002.19
1015.91 1015.21 1014.58 1013.93 1013.31 1012.72 1011.65 1010.26 1009.51 1008.90 1008.38 1007.98 1007.16 1006.39 1005.76 1005.33 1004.38 1003.07 1003.07 1002.60 1001.75 1001.23 1000.73 1000.34 1000.19 1000.15 999.98 1000.07 1000.01 1000.02 1000.50 1000.74 1000.95 1001.32 1001.39 1001.76 1002.29 1002.37
1016.82 1016.37 1015.86 1015.18 1014.30 1013.16 1012.14 1011.42 1010.59 1009.88 1009.36 1008.66 1007.81 1006.97 1006.30 1005.53 1004.63 1003.97 1003.24 1002.36 1001.71 1001.56 1000.96 1000.83 1000.71 1000.41 1000.19 999.90 1000.07 1000.25 1000.21 1000.66 1000.89 1001.31 1001.38 1001.69 1001.86 1002.16
1017.67 1017.18 1016.62 1015.97 1015.09 1014.23 1013.31 1012.39 1011.26 1010.38 1009.85 1009.40 1008.35 1007.72 1007.05 1005.93 1005.10 1004.31 1003.34 1002.89 1002.45 1001.97 1001.44 1001.12 1000.67 1000.36 1000.26 1000.22 1000.22 1000.31 1000.38 1000.41 1000.75 1000.99 1001.48 1002.00 1002.29 1002.22
1018.17 1017.73 1017.31 1016.69 1016.01 1015.20 1014.30 1013.37 1012.47 1011.51 1010.77 1009.75 1008.67 1007.97 1007.30 1006.63 1005.67 1004.91 1004.27 1003.76 1003.17 1002.35 1001.48 1000.92 1000.55 1000.71 1000.43 1000.46 1000.31 1000.15 1000.25 1000.51 1000.58 1000.74 1001.29 1001.59 1002.22 1002.55
1018.73 1017.99 1017.34 1016.79 1016.17 1015.46 1014.70 1013.82 1013.01 1012.27 1011.46 1010.45 1009.53 1008.68 1007.70 1006.76 1005.89 1005.27 1004.45 1003.78 1002.96 1002.10 1001.24 1000.85 1000.43 1000.26 1000.07 1000.03 999.72 999.88 1000.32 1000.69 1000.87 1000.85 1000.90 1000.86 1001.27 1001.75
1019.29 1018.66 1017.86 1017.05 1016.39 1015.67 1014.99 1014.31 1013.67 1012.79 1011.78 1010.78 1009.80 1008.89 1007.99 1007.02 1006.16 1005.58 1004.52 1003.69 1002.74 1001.80 1001.24 1000.74 999.84 999.79 999.75 999.59 999.51 999.79 1000.11 1000.48 1000.74 1001.08 1001.41 1001.38 1001.18 1001.05
Wind_Speed
14 14 14 12 11 15 15 17 17 16 16 10 9 14 14 13 16 16 16 21 27 27 29 30 30 28 30 30 30 31 31 30 30 29 29 29 28 28
13 14 14 12 14 12 15 18 18 19 18 11 11 13 16 12 13 17 18 23 27 29 29 29 29 31 29 30 31 30 30 30 30 30 30 29 30 29
18 15 16 16 11 12 14 18 19 18 19 14 12 15 18 17 15 16 16 15 14 26 27 27 26 28 27 28 30 31 31 30 29 30 30 30 30 30
19 19 16 13 16 14 12 20 20 20 17 21 14 13 16 15 14 14 12 11 14 20 26 26 26 26 26 27 28 28 29 30 29 29 29 30 30 30
17 18 18 17 16 15 16 15 16 17 18 17 11 10 9 10 12 12 11 12 11 14 22 24 25 27 27 27 29 30 30 30 29 27 28 28 28 29
16 15 16 17 17 18 17 17 16 18 20 15 12 11 10 8 10 10 7 7 9 8 10 13 18 21 23 25 26 27 30 30 30 30 29 28 28 28
14 14 13 19 25 22 15 15 17 14 17 12 9 6 6 5 12 6 8 7 7 5 6 5 6 8 11 18 21 27 28 29 30 31 31 31 31 30
15 14 13 17 20 26 23 22 16 16 12 2 9 11 6 8 7 7 6 4 5 4 8 6 7 7 8 9 19 20 23 25 28 29 29 29 29 30
15 14 14 10 17 17 20 19 15 16 16 8 9 9 6 6 1 4 6 8 6 2 5 4 3 7 7 8 15 21 20 24 25 25 26 27 28 29
15 15 15 16 16 20 16 15 9 10 13 8 10 8 8 8 7 4 3 4 1 1 2 4 2 5 1 3 10 18 21 22 24 24 24 24 25 26
15 14 15 18 26 26 16 15 15 12 13 21 18 17 16 14 8 4 4 5 1 1 1 3 3 2 0 2 4 8 13 15 18 20 22 23 24 25
15 15 21 24 27 26 14 14 16 15 15 14 11 14 12 12 15 10 7 4 3 2 1 3 2 3 1 0 1 2 3 6 10 13 14 16 16 10
13 12 13 26 24 22 22 15 15 14 13 11 10 8 9 9 6 7 8 4 2 1 3 3 1 2 2 1 1 2 3 3 3 1 6 11 14 15
13 12 13 24 23 22 18 24 22 15 11 9 9 10 8 7 8 9 10 7 3 4 6 3 1 1 2 1 2 1 2 2 2 2 2 4 9 13
13 17 23 22 22 18 23 24 17 11 10 10 11 9 8 8 9 8 9 9 6 4 1 1 3 1 2 2 1 0 1 1 1 2 2 3 3 2
15 13 14 15 14 13 13 14 11 11 11 11 9 8 7 7 8 8 6 7 5 1 1 3 2 3 1 2 2 2 2 1 1 1 1 1 0 1
11 10 11 12 13 13 12 12 11 10 10 10 9 10 11 9 9 7 6 6 5 5 5 3 2 2 0 2 2 3 2 2 3 3 2 2 1 1
9 10 11 12 12 12 12 12 12 13 11 10 10 10 9 8 8 7 6 6 6 6 5 5 3 2 0 2 3 2 2 2 2 3 2 3 2 1
10 10 10 11 11 11 12 12 12 11 12 10 10 10 10 9 9 8 8 7 7 7 7 6 5 2 2 2 2 2 2 3 4 3 2 1 2 3
10 10 10 11 11 11 12 12 12 12 11 11 10 10 10 10 10 9 8 9 8 8 7 6 5 4 3 2 1 1 2 3 3 4 3 3 5 10
10 10 9 10 9 10 10 11 12 11 11 11 11 10 10 9 9 9 9 10 9 7 7 6 5 7 5 1 2 2 1 2 2 5 6 5 3 3
10 11 10 10 10 10 10 10 10 11 11 10 11 11 10 9 9 10 9 9 9 8 8 8 7 6 5 5 6 3 3 2 6 9 7 4 4 7
10 11 11 11 11 11 11 11 11 11 11 11 10 11 10 10 10 9 9 9 9 9 9 8 6 5 6 5 5 4 5 7 4 5 3 5 4 9
Wind_Direction
302 295 293 285 285 273 268 259 253 254 228 208 202 207 216 209 209 208 217 209 207 206 208 211 210 203 204 203 204 206 209 210 210 211 212 212 216 218
306 303 299 300 292 289 273 266 249 245 249 213 214 211 204 204 205 206 210 212 201 202 206 208 206 206 202 202 202 203 204 208 210 210 210 211 213 216
315 310 307 305 305 300 292 271 252 240 237 231 213 203 198 198 198 201 211 206 211 204 203 204 206 204 201 201 202 202 202 205 207 210 210 210 211 215
319 317 315 315 314 309 310 305 265 240 229 221 203 197 202 201 207 200 205 207 209 197 203 205 204 205 204 201 200 200 200 202 205 208 209 209 211 215
320 319 321 323 320 319 317 312 307 263 224 222 193 193 188 191 199 204 194 208 216 196 196 198 202 208 207 203 201 200 201 199 202 203 205 204 206 213
318 320 323 323 320 322 317 316 314 302 224 222 189 180 177 181 191 192 194 196 199 198 188 188 196 205 205 205 204 203 205 204 204 203 202 202 202 203
322 320 321 320 325 324 314 315 316 312 224 185 184 172 172 153 191 178 208 197 206 180 184 184 179 193 206 213 213 209 206 204 206 208 208 207 205 202
326 327 323 324 328 331 314 311 321 342 307 217 178 188 168 188 183 180 173 153 204 183 195 196 178 195 201 200 206 209 210 211 211 209 208 208 207 206
332 329 328 344 339 336 334 336 338 336 350 54 69 31 21 6 261 138 177 195 205 191 159 180 175 204 199 208 197 203 204 208 212 212 211 208 211 207
333 334 337 340 352 345 341 337 326 355 342 29 42 43 26 351 338 338 121 115 150 328 107 167 148 199 158 210 196 200 202 203 208 211 210 209 211 213
337 341 351 343 349 353 342 341 346 352 320 22 36 42 30 6 355 321 259 91 81 169 269 132 180 138 99 245 196 198 208 211 212 216 216 214 212 214
340 344 351 347 349 353 355 354 351 343 349 10 25 35 29 23 17 360 303 93 113 83 283 120 149 136 289 225 292 178 190 210 212 212 216 221 218 217
346 344 346 349 349 354 0 5 359 349 358 12 16 19 20 28 343 18 332 18 43 68 9 91 109 167 98 176 197 190 197 162 170 195 215 217 208 206
347 346 345 350 355 1 6 2 3 2 12 11 18 16 9 356 343 10 333 350 325 278 314 66 294 146 124 70 234 134 190 163 140 135 149 200 210 204
347 347 353 357 0 1 360 3 7 11 13 12 14 11 354 339 351 1 347 335 311 274 265 188 218 180 170 206 182 262 138 127 181 177 190 197 209 173
348 347 353 358 5 3 4 2 6 7 6 4 7 357 352 355 10 11 338 344 313 12 69 31 355 174 199 222 162 167 203 136 93 157 149 158 215 231
341 352 0 4 2 1 0 3 3 4 9 1 355 353 1 357 358 359 340 353 339 342 345 8 22 8 276 168 204 218 191 179 170 151 166 162 186 205
3 4 3 1 0 355 352 358 3 3 0 355 356 355 353 344 345 360 352 347 342 339 335 343 340 308 287 232 245 223 177 181 156 167 149 162 188 156
12 5 360 356 352 352 354 354 352 358 351 351 349 350 348 347 347 346 342 347 349 335 330 322 306 279 272 257 114 230 199 180 150 166 156 145 155 145
9 1 358 354 351 350 349 348 346 347 350 345 347 348 343 343 342 339 343 343 335 326 315 299 287 280 252 286 315 87 286 167 173 152 132 92 68 89
356 357 354 352 349 345 345 344 343 343 338 338 344 342 341 337 336 336 328 324 314 304 303 295 307 328 301 186 214 206 136 290 215 162 147 136 126 134
351 346 347 349 348 347 345 344 343 342 341 339 338 333 334 334 331 327 326 321 315 312 303 299 295 282 253 238 243 165 153 127 94 93 78 109 164 178
348 346 342 343 344 344 343 341 339 336 337 334 333 332 331 327 329 318 319 316 310 311 303 298 303 286 256 252 241 181 169 149 151 143 106 92 98 106